Content
SEND FEEDBACK

Daily
Averages
Monthly
Summary
United Kingdom

LONDON, ENGLAND


Home > Europe > United Kingdom > England
Elevation: 61 meters     Latitude: 51 09N     Longitude: 000 11W

WEATHER
 
SELECT A DAY
Number of Records: 293,844;   Date Range: 7/1/96 - 8/28/14
 
SHARE

PRINT THIS DATA

[ ← Previous Day ]
WEATHER ALMANAC - 14 JANUARY, 2013
[ Next Day → ]
[ °F ]   °C
Weather ElementAverageHighLow
Temperature1.2 °C3 °C (1:20 pm)-1 °C (3:20 am)
Dewpoint-0.6 °C2 °C (1:50 pm)-3 °C (12:50 am)
Humidity87.7 %93 % (6:20 am)80 % (12:50 am)
Barometer1010.5 hPa1019 hPa (12:50 am)1003 hPa (9:20 pm)
Wind Speed10.9 km/h25.9 km/h (7:20 pm)
Weather ElementAverage
Visibility8.4 km
Wind DirectionSSW (217 °)

Weather ElementTotal
Precipitation---
Heating Degree Days17.3 (Base 18.3)
Averaged from 47 records on 14 January, 2013
WEATHER CONDITIONS BREAKOUT
WIND DIRECTION BREAKOUT
WEATHER BY HOUR - 14 JANUARY, 2013
[ °F ]   °C
Local TimeTemperatureDewpointHumidityBarometerVisibilityWind DirectionWind SpeedGust SpeedPrecipitationEventsConditions
12:50 AM0 °C-3 °C80 %1019 hPaNW (320°)7.4 km/hClear
1:20 AM0 °C-3 °C80 %1017.9 hPaNW (310°)3.7 km/hClear
1:50 AM0 °C-3 °C80 %1017.9 hPaCalmClear
2:20 AM0 °C-3 °C80 %1017.9 hPaVariable3.7 km/hClear
2:50 AM0 °C-3 °C80 %1017.9 hPaVariable3.7 km/hClear
3:20 AM-1 °C-3 °C86 %1017.9 hPaWSW (250°)3.7 km/hClear
3:50 AM0 °C-2 °C87 %1017.9 hPaSW (230°)3.7 km/hClear
4:20 AM0 °C-2 °C87 %1017.3 hPa10 kmSSW (210°)3.7 km/hSnowLight Snow
4:50 AM0 °C-3 °C80 %1017.3 hPa6.9 kmWest (260°)9.3 km/hSnowLight Snow
5:20 AM-1 °C-3 °C86 %1017.3 hPa6 kmWest (260°)9.3 km/hSnowLight Snow
5:50 AM-1 °C-3 °C86 %1016.3 hPa6 kmSSW (210°)3.7 km/hSnowLight Snow
6:20 AM-1 °C-2 °C93 %1016.3 hPa8 kmSouth (190°)3.7 km/hSnowLight Snow
6:50 AM-1 °C-2 °C93 %1016.3 hPa6.9 kmSW (220°)5.6 km/hSnowLight Snow
7:20 AM-1 °C-2 °C93 %1015.2 hPa6.9 kmSSW (200°)5.6 km/hSnowLight Snow
7:50 AM0 °C-2 °C87 %1015.2 hPa8 kmVariable5.6 km/hMostly Cloudy
8:20 AM0 °C-2 °C87 %1015.2 hPa9 kmVariable5.6 km/hOvercast
8:50 AM0 °C-2 °C87 %1015.2 hPa9 kmSSE (160°)7.4 km/hSnowLight Snow
9:20 AM0 °C-2 °C87 %1014.2 hPa10 kmSouth (170°)5.6 km/hMostly Cloudy
9:50 AM0 °C-2 °C87 %1014.2 hPa10 kmSouth (180°)9.3 km/hMostly Cloudy
10:20 AM0 °C-2 °C87 %1014.2 hPa10 kmSouth (190°)9.3 km/hMostly Cloudy
10:50 AM1 °C-1 °C87 %1013.2 hPa10 kmSouth (190°)11.1 km/hMostly Cloudy
11:20 AM1 °C-1 °C87 %1012.2 hPa8 kmSSW (210°)7.4 km/hSnowLight Snow
11:50 AM2 °C0 °C87 %1011.2 hPa6.9 kmSouth (180°)11.1 km/hRainRain
12:20 PM2 °C1 °C93 %1010.2 hPa6 kmSouth (190°)11.1 km/hRainLight Rain
12:50 PM2 °C1 °C93 %1010.2 hPa5 kmSouth (180°)7.4 km/hRain-SnowLight Rain
1:20 PM3 °C1 °C87 %1009.1 hPa5 kmSouth (170°)7.4 km/hRainLight Rain
1:50 PM3 °C2 °C93 %1008.1 hPa5 kmSouth (180°)7.4 km/hRainLight Rain
2:20 PM3 °C2 °C93 %1008.1 hPa5 kmSSW (210°)9.3 km/hRainLight Rain
2:50 PM3 °C2 °C93 %1007.1 hPa6.9 kmWSW (240°)7.4 km/hRainLight Rain
3:20 PM3 °C2 °C93 %1007.1 hPa6.9 kmWSW (240°)13 km/hRainLight Rain
3:50 PM3 °C2 °C93 %1006.1 hPa8 kmWSW (250°)13 km/hRainLight Rain
4:20 PM3 °C1 °C87 %1006.1 hPa10 kmWest (280°)11.1 km/hScattered Clouds
4:50 PM2 °C1 °C93 %1005.1 hPaWest (260°)9.3 km/hClear
5:20 PM2 °C1 °C93 %1005.1 hPaWest (270°)9.3 km/hClear
5:50 PM2 °C0 °C87 %1005.1 hPa10 kmWest (270°)11.1 km/hPartly Cloudy
6:20 PM3 °C1 °C87 %1005.1 hPa10 kmWest (280°)14.8 km/hScattered Clouds
6:50 PM3 °C1 °C87 %1004.1 hPa10 kmWNW (290°)22.2 km/hMostly Cloudy
7:20 PM3 °C1 °C87 %1004.1 hPa10 kmWNW (300°)25.9 km/hRainLight Rain
7:50 PM3 °C1 °C87 %1004.1 hPa9 kmWNW (300°)20.4 km/hRainLight Rain
8:20 PM2 °C1 °C93 %1004.1 hPa10 kmWest (270°)16.7 km/hMostly Cloudy
8:50 PM3 °C1 °C87 %1004.1 hPa10 kmWNW (290°)24.1 km/hMostly Cloudy
9:20 PM3 °C1 °C87 %1003 hPa10 kmWNW (290°)24.1 km/hMostly Cloudy
9:50 PM2 °C0 °C87 %1003 hPa10 kmNW (310°)22.2 km/hMostly Cloudy
10:20 PM2 °C0 °C87 %1003 hPa10 kmWNW (300°)22.2 km/hMostly Cloudy
10:50 PM2 °C0 °C87 %1003 hPa10 kmWNW (300°)22.2 km/hScattered Clouds
11:20 PM1 °C-1 °C87 %1003 hPa10 kmWNW (300°)18.5 km/hPartly Cloudy
11:50 PM2 °C0 °C87 %1003 hPa10 kmWNW (290°)22.2 km/hMostly Cloudy
Hourly data recorded from EGKK, located 0 kilometers away from London, England







STORIES FROM OUR PARTNERS